Spokane Fairchild, WA

1:52 AM PDT on October 24, 2017 (GMT -0700)
Fairchild Air Force Base

Weather History for KSKA - May, 2014

Change the Weather History Date:

Saturday, May 3, 2014

  Actual Average Record
Temperature  
Mean Temperature 55 °F -  
Max Temperature 62 °F 58 °F 81 °F (2016)
Min Temperature 48 °F 36 °F 32 °F (2002)
Degree Days  
Heating Degree Days 10    
Growing Degree Days 5 (Base 50)    
Moisture  
Dew Point 36 °F    
Average Humidity 50    
Maximum Humidity 70    
Minimum Humidity 30    
Precipitation  
Precipitation 0.00 in - - ()
Sea Level Pressure  
Sea Level Pressure 29.77 in    
Wind  
Wind Speed 14 mph (SSW)    
Max Wind Speed 24 mph    
Max Gust Speed 33 mph    
Visibility 10 miles    
Events      
Averages and records for this station are not official NWS values.
T = Trace of Precipitation, MM = Missing Value Source: NWS Daily Summary

Daily Weather History Graph

Daily Weather History Graph

Search for Another Location

Airport or City:

Trip Planner

Search our weather history database for the weather conditions in past years. The results will help you decide how hot, cold, wet, or windy it might be!

Date:

Astronomy

May. 03, 2014 Rise Set
Actual Time 5:30 AM PDT 8:05 PM PDT
Civil Twilight 4:55 AM PDT 8:40 PM PDT
Nautical Twilight 4:11 AM PDT 9:24 PM PDT
Astronomical Twilight 3:20 AM PDT 10:16 PM PDT
Moon 9:00 AM PDT (5/3) No Moon Set
Length of Visible Light 15h 45m
Length of Day
14h 35m
Waxing Crescent, 20% of the Moon is Illuminated
May 3
Waxing Crescent
May 6
First Quarter
May 14
Full
May 21
Last Quarter
May 28
New

Hourly Weather History & Observations

Time (PDT) Temp. Dew Point Humidity Pressure Visibility Wind Dir Wind Speed Gust Speed Precip Events Conditions
12:58 AM 53.8 °F 33.4 °F 46% 29.77 in 10.0 mi WSW 10.4 mph - N/A   Partly Cloudy
1:58 AM 51.3 °F 35.1 °F 54% 29.76 in 10.0 mi SW 8.1 mph - N/A   Partly Cloudy
2:58 AM 50.9 °F 36.0 °F 57% 29.77 in 10.0 mi South 11.5 mph - N/A   Mostly Cloudy
3:58 AM 51.3 °F 37.8 °F 60% 29.77 in 10.0 mi South 9.2 mph - N/A   Mostly Cloudy
4:58 AM 50.4 °F 39.4 °F 66% 29.78 in 10.0 mi South 11.5 mph - N/A   Overcast
5:58 AM 49.6 °F 40.1 °F 70% 29.77 in 10.0 mi SSW 12.7 mph - N/A   Overcast
6:58 AM 51.3 °F 41.4 °F 69% 29.77 in 10.0 mi SSW 16.1 mph 20.7 mph N/A   Overcast
7:58 AM 53.4 °F 41.7 °F 65% 29.77 in 10.0 mi SSW 20.7 mph 27.6 mph N/A   Overcast
8:58 AM 55.2 °F 42.1 °F 61% 29.77 in 10.0 mi SSW 24.2 mph 29.9 mph N/A   Mostly Cloudy
9:58 AM 55.4 °F 40.8 °F 58% 29.79 in 10.0 mi South 21.9 mph 28.8 mph N/A   Mostly Cloudy
10:58 AM 57.6 °F 35.2 °F 43% 29.80 in 10.0 mi SSW 24.2 mph 28.8 mph N/A   Mostly Cloudy
11:58 AM 57.9 °F 35.1 °F 42% 29.81 in 10.0 mi SSW 24.2 mph 29.9 mph N/A   Overcast
12:58 PM 57.0 °F 35.8 °F 45% 29.80 in 10.0 mi SW 23.0 mph 33.4 mph N/A   Overcast
1:58 PM 60.8 °F 33.6 °F 36% 29.79 in 10.0 mi SW 20.7 mph 27.6 mph N/A   Scattered Clouds
2:58 PM 62.2 °F 30.7 °F 31% 29.78 in 10.0 mi SW 21.9 mph 32.2 mph N/A   Partly Cloudy
3:58 PM 62.4 °F 30.2 °F 30% 29.77 in 10.0 mi WSW 19.6 mph 27.6 mph N/A   Clear
4:58 PM 61.9 °F 30.4 °F 31% 29.77 in 10.0 mi SSW 21.9 mph 27.6 mph N/A   Scattered Clouds
5:58 PM 59.2 °F 30.9 °F 34% 29.76 in 10.0 mi SW 13.8 mph - N/A   Mostly Cloudy
6:58 PM 57.9 °F 32.5 °F 38% 29.76 in 10.0 mi SW 15.0 mph - N/A   Mostly Cloudy
7:58 PM 52.3 °F 34.5 °F 51% 29.77 in 10.0 mi SW 8.1 mph - N/A   Clear
8:58 PM 49.5 °F 33.3 °F 54% 29.77 in 10.0 mi South 6.9 mph - N/A   Scattered Clouds
9:58 PM 48.9 °F 34.0 °F 56% 29.76 in 10.0 mi SSW 8.1 mph - N/A   Partly Cloudy
10:58 PM 50.2 °F 34.9 °F 56% 29.75 in 10.0 mi SW 10.4 mph - N/A   Partly Cloudy
11:58 PM 51.8 °F 34.7 °F 52% 29.74 in 10.0 mi SW 8.1 mph - N/A   Mostly Cloudy